Probability
0 0 0 0 0 0 0 0 0 0 0 3 0 0 0 0 0 0 0 0 0 0 0 0 0 0 0 0 0 0 0 0 0 0 0 0 0 0 0 0 0 0 0
0 0 0 0 0 0 0 0 0 0 0 0 0 0 0 0 0 0 0 0 0 0 0 0 0 0 0 0 0 0 0 0 0 0 0 0 0 0 0 0 0 0 0
0 0 0 0 0 0 0 0 0 0 0 0 0 0 0 0 0 0 0 0 0 0 0 0 0 0 0 0 0 0 0 0 0 0 0 0 0 0 0 0 0 0 0
0 0 0 0 0 0 0 0 0 0 0 0 0 0 0 0 0 0 0 0 0 0 0 0 0 0 0 0 0 0 0 0 0 0 0 0 0 0 0 0 0 0 0
0 0 0 0 0 0 0 0 0 0 0 0 0 0 0 0 0 0 0 0 0 0 0 0 0 0 0 0 0 0 0 0 0 0 0 0 0 0 0 0 0 0 0
0 0 0 0 0 0 0 0 0 0 0 0 0 0 0 0 0 0 0 0 0 0 0 0 0 0 0 0 0 0 0 0 0 0 0 0 0 0 0 0 0 0 0
0 0 0 0 0 0 0 0 0 0 0 0 0 0 0 0 0 0 0 0 0 0 0 0 0 0 0 0 0 0 0 0 0 0 0 0 0 0 0 0 0 0 0
0 0 0 0 0 0 0 0 0 0 0 0 0 0 0 0 0 0 0 0 0 0 0 0 0 0 0 0 0 0 0 0 0 0 0 0 0 0 0 0 0 0 0
0 0 0 0 0 0 0 0 0 0 0 0 0 0 0 0 0 0 0 0 0 0 0 0 0 0 0 0 0 0 0 0 0 0 0 0 0 0 0 0 0 0 0
0 0 0 0 0 0 0 0 0 0 0 0 0 0 0 0 0 0 0 0 0 0 0 0 0 0 0 0 0 0 0 0 0 0 0 0 0 0 0 0 0 0 0
0 0 0 0 0 0 0 0 0 0 0 0 0 0 0 0 0 0 0 0 0 0 0 0 0 0 0 0 0 0 0 0 0 0 0 0 0 0 0 0 0 0 0
0 0 0 0 0 0 0 0 0 0 0 0 0 0 0 0 0 0 0 0 0 0 0 0 0 0 0 0 0 0 0 0 0 0 0 0 0 0 0 0 0 0 0
0 0 0 0 0 0 0 0 0 0 0 0 0 0 0 0 0 0 0 0 0 0 0 0 0 0 0 0 0 0 0 0 0 0 0 0 0 0 0 0 0 0 0
0 0 0 0 0 0 0 0 0 0 0 0 0 0 0 0 0 0 0 0 0 0 0 0 0 0 0 0 0 0 0 0 0 0 0 0 0 0 0 0 0 0 0
0 0 0 0 0 0 0 0 0 0 0 0 0 0 0 0 0 0 0 0 0 0 0 0 0 0 0 0 0 0 0 0 0 0 0 0 0 0 0 0 0 0 0
0 0 0 0 0 0 0 0 0 0 0 0 0 0 0 0 0 0 0 0 0 0 0 0 0 0 0 0 0 0 0 0 0 0 0 0 0 0 0 0 0 0 0
0 0 0 0 0 0 0 0 0 0 0 0 0 0 0 0 0 0 0 0 0 0 0 0 0 0 0 0 0 0 0 0 0 0 0 0 0 0 0 0 0 0 0
0 0 0 0 0 0 0 0 0 0 0 0 0 0 0 0 0 0 0 0 0 0 0 0 0 0 0 0 0 0 0 0 0 0 0 0 0 0 0 0 0 0 0
0 0 0 0 0 0 0 0 0 0 0 0 0 0 0 0 0 0 0 0 0 0 0 0 0 0 0 0 0 0 0 0 0 0 0 0 0 0 0 0 0 0 0
0 0 0 0 0 0 0 0 0 0 0 0 0 0 0 0 0 0 0 0 0 0 0 0 0 0 0 0 0 0 0 0 0 0 0 0 0 0 0 0 0 0 0
0 0 0 0 0 0 0 0 0 0 0 0 0 0 0 0 0 0 0 0 0 0 0 0 0 0 0 0 0 0 0 0 0 0 0 0 0 0 0 0 0 0 0
0 0 0 0 0 0 0 0 0 0 0 0 0 0 0 0 0 0 0 0 0 0 0 0 0 0 0 0 0 0 0 0 0 0 0 0 0 0 0 0 0 0 0
0 0 0 0 0 0 0 0 0 0 0 0 0 0 0 0 0 0 0 0 0 0 0 0 0 0 0 0 0 0 0 0 0 0 0 0 0 0 0 0 0 0 0
0 0 0 0 0 0 0 0 0 0 0 0 0 0 0 0 0 0 0 0 0 0 0 0 0 0 0 0 0 0 0 0 0 0 0 0 0 0 0 0 0 0 0
0 0 0 0 0 0 0 0 0 0 0 0 0 0 0 0 0 0 0 0 0 0 0 0 0 0 0 0 0 0 0 0 0 0 0 0 0 0 0 0 0 0 0
0 0 0 0 0 0 0 0 0 0 0 0 0 0 0 0 0 0 0 0 0 0 0 0 0 0 0 0 0 0 0 0 0 0 0 0 0 0 0 0 0 0 0
Height
5701 5699 5697 5694 5690 5686 5682 5678 5673 5669 5666 5664 5662 5662 5662 5664 5665 5667 5669 5671 5673 5675 5676 5677 5677 5677 5676 5675 5673 5671 5670 5667 5663 5660 5657 5653 5649 5645 5642 5638 5634 5630 5626
5691 5689 5686 5682 5677 5672 5667 5661 5655 5650 5647 5644 5643 5643 5643 5645 5648 5650 5653 5656 5658 5660 5662 5664 5664 5664 5663 5662 5661 5658 5656 5653 5650 5646 5642 5638 5634 5630 5627 5622 5617 5612 5607
5681 5678 5675 5670 5665 5659 5652 5645 5639 5633 5629 5626 5625 5625 5627 5629 5632 5635 5638 5642 5645 5647 5649 5651 5651 5651 5651 5649 5648 5645 5643 5640 5636 5633 5629 5624 5620 5615 5611 5606 5600 5594 5588
5672 5669 5664 5659 5653 5647 5640 5633 5626 5620 5615 5612 5610 5611 5613 5616 5619 5622 5626 5629 5632 5635 5637 5638 5639 5639 5638 5637 5635 5633 5629 5626 5623 5619 5615 5610 5605 5599 5594 5589 5583 5576 5569
5663 5659 5655 5649 5643 5637 5630 5623 5616 5610 5605 5602 5601 5601 5603 5605 5608 5611 5615 5619 5622 5624 5626 5627 5628 5628 5627 5625 5623 5620 5617 5613 5609 5605 5601 5595 5589 5583 5578 5571 5565 5558 5550
5656 5652 5647 5641 5635 5629 5623 5616 5610 5604 5600 5597 5595 5595 5596 5598 5600 5604 5607 5610 5613 5615 5616 5617 5617 5617 5616 5614 5611 5608 5604 5600 5596 5591 5586 5580 5573 5567 5561 5554 5547 5540 5532
5649 5645 5640 5635 5629 5623 5617 5612 5606 5601 5597 5594 5593 5592 5593 5594 5596 5598 5601 5603 5606 5607 5608 5608 5608 5607 5605 5603 5599 5596 5592 5587 5582 5577 5571 5565 5558 5552 5545 5537 5529 5521 5512
5643 5639 5635 5630 5624 5619 5613 5608 5604 5600 5596 5593 5592 5592 5592 5592 5593 5595 5597 5598 5600 5601 5601 5600 5599 5597 5595 5592 5588 5583 5578 5573 5569 5563 5557 5550 5542 5535 5527 5519 5511 5503 5493
5637 5634 5630 5626 5621 5616 5611 5607 5603 5599 5596 5594 5592 5592 5591 5592 5592 5593 5594 5594 5594 5594 5594 5592 5590 5588 5585 5581 5576 5571 5565 5560 5554 5547 5541 5533 5525 5517 5509 5501 5493 5486 5478
5633 5629 5626 5622 5618 5614 5610 5606 5603 5599 5596 5594 5593 5592 5591 5591 5590 5590 5590 5590 5589 5588 5586 5584 5581 5577 5574 5569 5564 5558 5552 5546 5539 5532 5524 5517 5509 5500 5492 5485 5477 5470 5462
5628 5626 5622 5619 5616 5612 5609 5605 5602 5599 5597 5594 5592 5591 5590 5589 5588 5587 5586 5585 5583 5581 5578 5575 5572 5567 5563 5558 5552 5546 5539 5532 5524 5516 5508 5500 5492 5484 5477 5469 5462 5455 5448
5624 5622 5619 5616 5613 5610 5607 5604 5601 5598 5596 5594 5592 5590 5588 5587 5585 5583 5581 5579 5576 5573 5570 5566 5562 5557 5552 5546 5540 5533 5525 5518 5510 5501 5493 5485 5477 5470 5463 5455 5448 5441 5434
5620 5618 5616 5613 5611 5608 5605 5602 5600 5597 5594 5592 5590 5587 5585 5583 5580 5578 5575 5572 5569 5566 5562 5557 5552 5546 5540 5534 5527 5519 5512 5503 5495 5487 5479 5471 5463 5456 5449 5443 5436 5429 5422
5616 5614 5612 5610 5608 5605 5602 5600 5597 5594 5592 5589 5587 5584 5581 5578 5575 5572 5569 5566 5562 5557 5553 5547 5541 5535 5528 5521 5514 5506 5497 5489 5481 5473 5465 5457 5450 5444 5438 5432 5426 5419 5413
5613 5611 5609 5607 5604 5602 5599 5597 5594 5591 5588 5586 5583 5579 5576 5573 5570 5566 5562 5558 5553 5548 5543 5537 5530 5523 5516 5508 5500 5491 5483 5475 5467 5459 5452 5445 5439 5433 5427 5422 5416 5410 5404
5609 5607 5605 5603 5600 5598 5595 5593 5590 5587 5584 5581 5577 5574 5571 5567 5563 5559 5555 5550 5545 5539 5533 5526 5518 5510 5502 5494 5485 5477 5469 5461 5454 5446 5440 5434 5429 5423 5418 5413 5407 5401 5395
5604 5603 5601 5598 5596 5593 5591 5588 5585 5582 5579 5575 5572 5568 5565 5561 5556 5552 5547 5541 5535 5529 5522 5514 5506 5498 5489 5480 5472 5464 5456 5449 5442 5435 5430 5425 5420 5415 5410 5405 5399 5394 5388
5599 5598 5596 5593 5591 5588 5586 5583 5580 5576 5573 5570 5566 5562 5558 5554 5549 5544 5538 5532 5526 5519 5511 5503 5495 5486 5477 5468 5459 5451 5444 5437 5431 5425 5420 5416 5412 5407 5402 5397 5392 5386 5381
5594 5592 5590 5588 5585 5583 5580 5577 5574 5570 5567 5563 5559 5555 5551 5546 5541 5535 5529 5523 5516 5509 5501 5492 5483 5474 5465 5456 5448 5440 5432 5426 5421 5416 5412 5408 5404 5399 5395 5389 5384 5379 5373
5588 5586 5584 5582 5580 5577 5574 5571 5568 5564 5560 5557 5552 5548 5543 5538 5533 5527 5520 5513 5506 5499 5490 5482 5473 5463 5454 5445 5437 5429 5422 5417 5412 5408 5404 5400 5396 5391 5387 5382 5377 5372 5366
5582 5580 5578 5576 5573 5570 5567 5564 5561 5557 5553 5549 5545 5540 5535 5530 5524 5518 5511 5504 5496 5488 5480 5471 5462 5453 5443 5434 5426 5419 5413 5409 5405 5401 5397 5392 5388 5383 5379 5374 5369 5364 5359
5575 5573 5571 5569 5566 5564 5561 5557 5554 5550 5546 5542 5537 5532 5527 5521 5515 5509 5502 5495 5487 5478 5470 5461 5452 5443 5434 5425 5418 5411 5406 5402 5398 5394 5389 5385 5381 5376 5371 5366 5362 5357 5351
5568 5566 5564 5562 5559 5556 5553 5550 5546 5542 5538 5534 5529 5524 5519 5513 5506 5500 5493 5485 5477 5469 5460 5451 5442 5434 5425 5418 5411 5405 5400 5396 5391 5387 5383 5378 5374 5369 5364 5359 5354 5349 5344
5560 5558 5556 5554 5552 5549 5546 5542 5539 5535 5530 5526 5521 5516 5510 5504 5497 5490 5483 5475 5467 5459 5450 5442 5434 5426 5418 5411 5405 5399 5394 5390 5385 5381 5376 5371 5367 5362 5357 5352 5347 5342 5337
5552 5551 5549 5546 5544 5541 5538 5534 5531 5527 5522 5518 5513 5507 5501 5495 5488 5481 5473 5465 5457 5449 5441 5433 5425 5418 5411 5404 5399 5393 5388 5383 5378 5374 5369 5365 5360 5355 5350 5345 5340 5335 5330
5544 5543 5541 5538 5536 5533 5530 5526 5523 5519 5514 5509 5504 5498 5492 5485 5478 5471 5464 5456 5448 5440 5432 5424 5417 5410 5403 5397 5392 5387 5382 5377 5372 5367 5362 5357 5353 5348 5343 5338 5333 5328 5323
Wind_Speed
41 43 45 47 50 53 56 58 60 63 64 65 66 66 65 64 62 61 60 59 58 58 58 57 57 56 57 58 59 58 58 58 59 58 58 58 59 60 60 60 60 62 63
38 40 42 44 47 50 53 55 57 59 61 62 62 62 62 60 58 57 55 55 55 54 54 54 55 55 55 56 56 57 58 58 59 58 57 59 61 62 62 63 63 65 66
35 36 38 40 42 44 46 48 50 51 53 54 55 55 55 54 52 52 51 50 50 50 50 51 51 52 53 53 54 55 56 57 57 57 59 60 61 62 64 65 65 66 68
32 33 35 36 38 39 40 40 42 43 44 44 44 44 45 45 44 44 44 44 44 44 45 46 48 49 49 50 51 52 53 55 56 58 59 60 62 64 65 65 65 66 68
28 30 32 33 33 33 33 33 34 34 34 32 33 33 35 36 36 36 36 36 37 39 41 42 43 44 45 46 47 49 51 53 54 56 58 61 62 63 64 64 65 66 69
25 26 27 28 28 28 28 27 26 25 24 23 23 23 25 26 28 29 30 31 32 34 36 37 38 39 41 43 46 47 48 51 53 55 57 59 60 62 63 65 66 68 69
22 23 23 24 24 24 23 22 21 19 17 17 16 16 18 19 21 22 24 25 27 29 31 33 35 37 40 42 44 47 49 51 53 55 56 58 60 62 64 65 67 67 67
19 20 20 20 20 19 19 17 15 13 12 11 11 13 13 13 15 17 20 22 24 26 28 31 33 36 38 41 44 47 49 51 53 55 57 59 61 63 65 65 65 64 62
16 17 17 16 16 16 15 13 12 11 9 8 8 9 10 12 14 15 17 20 23 26 29 31 34 36 39 42 44 47 49 51 53 56 58 60 62 63 63 62 60 58 56
14 14 14 13 13 13 12 11 11 10 9 8 8 8 9 11 12 15 18 21 24 26 29 31 34 37 39 42 44 47 50 52 55 57 59 60 60 60 58 56 55 53 52
13 12 12 12 12 12 12 11 10 10 9 9 9 10 11 13 15 17 19 22 24 27 30 33 35 38 41 43 46 48 51 53 55 57 58 58 56 55 53 52 51 49 49
13 12 12 11 11 11 11 11 11 11 11 11 12 13 15 16 18 20 22 24 27 29 32 34 37 40 42 45 47 50 52 54 55 55 55 54 53 52 51 49 48 47 46
12 12 11 11 11 12 12 12 12 13 13 14 15 16 18 19 20 22 24 26 29 31 34 37 39 42 45 47 49 51 53 54 54 53 53 52 51 49 47 45 44 44 43
11 11 11 11 12 13 13 14 14 15 16 16 17 18 20 21 23 25 27 29 32 34 37 39 42 44 47 49 51 52 53 52 52 52 51 49 47 44 42 40 40 40 39
12 12 12 13 13 14 15 15 16 17 18 19 20 21 22 24 25 27 29 32 35 37 40 42 45 47 49 51 52 52 52 52 51 49 47 44 41 39 38 37 37 37 37
13 13 14 14 15 16 17 17 18 19 20 21 22 24 25 27 28 30 32 35 37 40 42 44 47 49 50 51 51 51 51 49 47 45 42 39 36 35 35 35 35 35 34
15 15 16 17 17 18 18 19 20 21 22 23 25 26 27 29 31 33 35 37 39 41 44 46 48 49 50 50 50 49 47 46 44 40 37 34 33 33 33 33 33 33 32
16 17 18 18 19 20 20 21 22 24 25 26 27 28 29 31 33 35 37 39 41 43 45 47 49 50 50 50 49 47 46 43 39 35 33 32 31 31 31 31 31 31 31
18 19 19 20 21 21 22 23 24 25 26 27 28 30 31 33 35 37 39 41 43 45 47 48 49 50 50 49 47 45 42 38 34 31 31 31 30 30 31 31 31 31 31
20 21 21 22 23 23 24 25 26 27 28 29 30 32 33 35 37 38 40 42 44 46 48 49 50 50 49 47 44 41 36 33 30 29 30 30 30 30 30 30 31 31 30
22 23 23 23 24 25 25 26 27 28 29 30 31 33 35 36 38 40 42 43 46 47 48 49 50 49 47 44 40 36 32 30 28 28 29 29 29 30 30 30 31 31 31
24 24 24 25 25 26 27 28 28 29 30 31 33 34 35 37 40 41 43 45 46 48 49 49 48 46 44 40 36 31 29 28 27 27 28 29 29 30 30 31 31 31 32
25 25 25 26 27 27 28 29 29 30 31 33 34 35 37 39 41 43 44 46 47 48 48 47 46 44 41 36 32 29 27 27 27 27 28 29 30 31 31 31 31 32 32
25 26 26 27 27 28 29 29 30 31 32 34 35 37 39 41 42 44 45 46 48 47 47 46 44 41 38 34 31 29 28 27 28 28 29 29 30 30 30 30 31 32 32
26 26 27 27 28 29 30 30 31 32 33 35 37 38 40 42 43 44 46 47 47 46 45 44 42 39 36 33 31 29 29 29 29 29 29 29 29 29 30 30 30 31 31
27 27 28 28 29 30 30 30 31 33 35 36 38 39 41 43 44 45 47 47 47 46 45 43 40 37 35 32 30 30 29 29 29 29 29 29 29 29 29 29 30 30 29
Wind_Direction
277 279 280 281 282 282 281 279 277 275 273 271 269 267 266 265 264 263 262 262 261 262 263 264 266 268 271 273 276 278 279 280 282 282 282 283 283 285 286 287 288 289 288
280 282 284 285 286 286 285 283 280 278 275 273 270 268 266 264 263 262 261 261 260 260 261 263 265 268 270 272 275 276 277 279 281 282 282 284 286 287 288 289 290 290 290
283 286 289 291 292 292 291 288 285 281 277 273 270 267 265 263 262 261 260 260 260 259 260 262 264 266 269 272 273 276 277 279 281 282 283 285 287 288 290 291 291 292 292
287 290 293 295 296 297 296 293 290 286 282 276 271 267 264 262 260 259 258 258 258 259 260 261 263 266 269 272 274 276 278 280 281 283 285 286 288 290 292 292 293 293 294
291 294 297 299 300 301 302 300 297 292 285 278 272 266 262 260 258 256 254 255 256 258 260 261 264 267 270 274 275 278 280 281 283 285 287 289 291 292 293 294 295 296 295
295 299 301 304 305 305 307 308 303 297 288 279 274 268 261 257 254 251 249 252 254 258 261 263 266 269 272 275 279 281 283 285 286 289 291 293 294 295 295 296 297 297 296
298 302 306 310 312 311 311 312 307 301 293 283 279 272 264 259 255 250 249 250 255 260 264 267 270 273 276 279 282 285 287 289 291 293 294 295 296 297 298 298 298 298 298
300 305 310 314 318 319 319 317 314 311 304 292 279 274 267 261 254 254 255 256 261 265 269 272 276 278 280 284 287 289 292 293 294 295 296 297 298 299 299 299 299 299 299
302 306 310 315 322 327 328 326 324 322 314 304 291 279 272 266 262 261 263 265 269 274 278 280 282 284 287 290 292 294 295 296 297 298 299 300 300 300 301 301 301 300 299
302 308 310 314 323 329 330 330 330 328 325 320 311 302 291 284 280 279 278 278 279 281 284 287 289 292 294 295 296 297 298 299 300 301 301 302 302 302 302 303 302 301 301
300 305 312 313 317 320 322 325 329 330 328 323 317 309 301 295 293 292 290 290 291 292 293 295 296 297 298 299 299 300 301 302 302 303 303 304 304 304 304 304 304 304 303
294 298 306 314 317 320 321 323 325 325 324 319 314 309 305 302 299 299 298 298 299 299 300 300 301 301 301 302 302 303 304 304 304 305 305 305 305 305 304 305 305 305 305
288 294 300 305 312 316 319 321 323 323 321 318 314 311 309 306 305 304 303 303 302 303 303 304 304 304 304 305 305 305 305 305 305 306 306 306 305 305 305 305 306 307 307
286 291 297 302 308 312 315 317 318 318 317 316 315 313 311 310 308 307 307 306 305 305 306 306 307 307 307 306 306 307 306 306 306 306 306 306 305 305 305 306 307 308 308
285 290 297 303 307 310 312 313 314 314 315 314 314 314 312 312 311 310 309 309 309 309 309 309 309 309 309 309 308 308 307 307 307 307 307 306 306 306 306 308 309 310 310
285 290 296 301 305 308 309 310 312 313 314 314 314 314 313 313 313 312 311 311 311 311 311 311 312 312 312 311 311 310 309 308 307 307 306 306 306 307 308 309 311 312 312
286 290 294 298 303 306 307 308 310 312 313 313 314 314 314 314 314 313 313 314 314 314 314 315 315 315 315 314 313 312 310 309 308 307 305 305 306 308 309 311 313 314 315
286 291 294 298 302 304 306 307 309 311 312 313 314 314 314 314 315 315 316 316 316 316 317 317 317 317 316 315 314 312 311 309 307 305 304 305 306 308 310 312 313 314 315
287 291 294 298 301 303 305 307 308 309 310 312 312 313 314 315 316 316 317 317 318 318 319 319 320 319 318 317 315 313 312 309 306 305 305 306 306 308 310 312 313 314 315
286 290 293 296 300 303 305 307 308 309 310 311 312 314 315 316 317 317 318 319 319 319 320 321 321 321 320 319 317 314 312 309 306 305 306 307 307 308 310 311 313 314 315
285 289 292 295 298 301 304 306 308 308 310 311 313 314 316 317 318 318 319 319 320 321 321 322 323 323 322 320 318 316 313 310 308 307 308 308 308 310 311 312 313 315 316
284 287 291 294 297 300 303 305 307 308 309 311 313 315 316 317 318 319 319 320 321 322 323 323 324 324 324 322 320 317 314 312 310 310 310 310 310 311 312 313 314 315 317
283 286 290 293 296 298 302 304 306 307 309 311 313 315 316 317 318 319 319 320 322 323 323 324 325 325 325 323 321 318 316 314 312 312 312 312 311 312 312 313 314 315 316
283 287 290 292 295 298 301 304 305 307 310 312 313 315 316 317 318 319 320 321 322 323 324 325 326 326 324 323 321 319 317 315 313 313 313 312 313 313 313 314 314 315 316
284 287 289 291 294 298 301 303 305 308 310 312 314 315 316 317 318 319 320 321 322 323 324 324 324 324 323 321 319 318 316 315 314 314 314 313 314 314 315 315 315 316 317
282 285 288 290 294 297 300 302 305 308 310 312 314 315 316 317 318 319 320 322 323 323 323 323 323 322 321 320 319 318 317 316 315 315 315 315 315 315 315 316 316 317 317